Tracking 31027 objects as of 19-Jul-2025
HD Live streaming from Space Station
objects crossing your sky now

STARLINK-31330

Track STARLINK-31330 now!
10-day predictions
STARLINK-31330 is classified as:


NORAD ID: 58951
Int'l Code: 2024-027W
Perigee: 481.4 km
Apogee: 483.4 km
Inclination: 53.2 °
Period: 94.1 minutes
Semi major axis: 6853 km
RCS: Unknown
Launch date: February 10, 2024
Source: United States (US)
Launch site: AIR FORCE WESTERN TEST RANGE (AFWTR)
Your satellite tracking list
Your tracking list is empty




NASA's NSSDC Master Catalog

Two Line Element Set (TLE):
1 58951U 24027W   25199.70539804  .00000411  00000-0  26022-4 0  9997
2 58951  53.1619 313.6829 0001439  46.5022 313.6099 15.30180258 81545
Source of the keplerian elements: AFSPC